Location: Most
(50.5133°N, 13.6207°E)
Time: 14:25:37
(UTC+02:00)

ISS - Pass Details

Date: 14 September 2017
Orbit: 402 x 407 km, 51.6° (Epoch: 21 September)

Event Time Altitude Azimuth Distance (km) Brightness Sun altitude
Exits shadow 04:36:53 61° 312° (NW) 469 -3.7 -19.2°
Maximum altitude 04:37:16 70° 0° (N) 439 -3.7 -19.1°
Drops below altitude 10° 04:40:33 10° 86° (E) 1,472 0.0 -18.7°
Sets 04:42:39 0° 89° (E) 2,332 1.1 -18.4°
